DELTA 1 DEB, 10711

Orbit data source: Space-Track

DELTA 1 DEB, 10711 is space debris in SSO originally from a launch on Thu, 29 Jul 1976 UTC launched from the Air Force Western Test Range (AFWTR). Debris objects in space refer to the collection of defunct objects orbiting the Earth. Examples of debris include non-operational satellites, rocket bodies, and fragments generated from explosions, collisions, or faulty payload assembly.

Loading next visibility...
Identifier
10711, 1976-077AG
Orbit
SSO
Country
Flag of USUS
Related business
Manufacturer
Unknown
Mission
Spacecraft
Bus & Motor
Unknown
Mass
Unknown
Launch date (UTC)
1976-07-29 (49 years ago)
Launch vehicle
Unknown
Launch site
Air Force Western Test Range (AFWTR)
Object type
Payload
Rocket body
Debris
Shape & HBR
Unknown
Radar Cross Section
Small (<0.1 m²)

Expand to show TLE details & history
Last TLE update: 9 hours ago

TLE from 9 hours ago
0 DELTA 1 DEB
1 10711U 76077AG  25261.16583564 -.00000021  00000-0  21015-3 0  9997
2 10711 102.4569 239.8536 0063311 201.0800 300.0721 12.29241401205309
Epoch: 2025-09-18T03:58Z
TLE epoch observation values (Epoch: 2025-09-18T03:58:48.199Z)
Latitude
38.45165°
Longitude
12.87429°
Altitude
1,532.667 km
Speed
7.114 km/s
True Right ascension
04h 39m 37s
True Declination
38° 18' 02"
Sunlit
Object was in daylight at epoch
Visualization orbit readout
Latitude
Unknown
Longitude
Unknown
Altitude
Unknown
Speed
Unknown
Apparent Right ascension
Unknown
Apparent Declination
Unknown
Sunlit
N/A
Visualization observer readout
Local Sidereal Time
06:02:59
Azimuth
Unknown
Elevation
Unknown
Doppler factor
Unknown
Orbital elements
Apogee altitude
1,600.353 km
Perigee altitude
1,499.964 km
Semi-major axis
7,928.295 km
Eccentricity
0.00633
Inclination
102.4569°
RAAN
239.8536°
Arg. of periapsis
201.08°
True anomaly
299.44178°
Mean anomaly
300.0721°
Eccentric anomaly
299.75719°
Mean motion
3.07449 °/min
Orbital period
117.09 mins
BSTAR
0.00021015
Loading maneuver chart data...
Computing Atmospheric mass density...
Loading historical data...
Loading historical data...
Loading historical data...
Loading historical data...
Loading historical data...
Loading historical data...
Loading historical data...

Documentation

Showing up to 5 results
|